SCP
0 0 0 0 0 0 0 0 0 0 0 0 0 0 0 0 0 0 0 0 0 0 -0 -0 -0 0 0 -0 0 0 0 0 0 0 0 0 0 0 0 0 0 0 0
0 0 0 0 0 0 0 0 0 0 0 0 0 0 0 0 0 0 0 0 0 0 0 0 0 0 0 0 0 0 0 0 0 0 0 0 0 0 0 0 0 0 0
0 0 0 0 0 0 0 0 0 0 0 0 0 0 0 0 0 0 0 0 0 0 0 0 0 0 0 0 0 0 0 0 0 0 0 0 0 0 0 0 0 0 0
0 0 0 0 0 0 0 0 0 0 0 0 0 0 0 0 0 0 0 0 0 0 0 0 0 0 0 0 0 0 0 0 0 0 0 0 0 0 0 0 0 0 0
0 0 0 0 0 0 0 0 0 0 0 0 0 0 0 0 0 0 0 0 0 0 0 0 0 0 0 0 0 0 0 0 0 0 0 0 0 0 0 0 0 0 0
0 0 0 0 0 0 0 0 0 0 0 -0 -0 0 -0 -0 0 0 0 0 0 0 0 0 0 0 0 0 0 0 0 0 0 0 0 0 0 0 0 0 0 0 0
0 0 0 0 0 0 0 0 0 0 0 0 0 0 -0 -0 -0 -0 0 0 0 0 0 0 0 0 0 0 0 0 0 0 0 0 0 0 0 0 0 0 0 0 0
0 0 0 0 0 0 0 0 0 0 0 0 0 0 0 0 0 0 -0 -0 0 0 0 0 0 0 0 0 0 0 0 0 0 0 0 0 0 0 0 0 0 0 0
0 0 0 0 0 0 0 0 0 0 0 0 0 0 0 0 0 0 0 0 0 0 0 0 0 0 0 0 0 0 0 0 0 0 0 0 0 0 0 0 0 0 0
0 0 0 0 0 0 0 0 0 0 0 0 0 0 0 0 0 0 0 0 0 0 0 0 0 -0 -0 0 0 0 0 0 0 0 0 0 0 0 0 0 0 0 0
0 0 0 0 0 0 0 0 0 0 0 0 0 0 0 0 0 0 0 0 -0 -0 -0 0 0 -0 -0 -0 0 0 0 0 0 0 0 0 0 0 0 0 0 0 0
0 0 0 0 0 0 0 0 0 0 0 0 0 0 0 0 0 0 0 0 -0 -0 0 -0 -0 -0 -0 -0 0 0 0 0 0 0 0 0 0 0 0 0 0 0 0
0 0 0 0 0 0 0 0 0 0 0 0 0 0 0 0 0 0 0 0 -0 0 0 0 0 0 -0 -0 -0 0 0 0 0 0 0 0 0 0 0 0 0 0 0
0 0 0 0 0 0 0 0 0 0 0 0 0 0 0 0 0 0 0 0 -0 -0 0 0 -0 -0 -0 -0 -0 0 0 0 0 0 0 0 0 0 0 0 0 0 0
0 0 0 0 0 0 0 0 0 0 0 0 0 0 0 0 0 0 0 0 0 -0 0 0 0 0 -0 -0 -0 0 0 0 0 0 0 0 0 0 0 0 0 0 0
0 0 0 0 0 0 0 0 0 0 0 0 0 0 0 0 0 0 0 0 0 0 0 0 0 0 0 -0 0 0 0 0 0 0 0 0 0 0 0 0 0 0 0
0 0 0 0 0 0 0 0 0 0 0 0 0 0 0 0 0 0 0 0 0 0 -0 0 0 0 0 -0 0 0 0 0 0 0 0 0 0 0 0 0 0 0 0
0 0 0 0 0 0 0 0 0 0 0 0 0 0 0 0 0 0 0 0 0 0 0 0 0 0 0 -0 0 0 0 0 0 0 0 0 0 0 0 0 0 0 0
0 0 0 0 0 0 0 0 0 0 0 0 0 0 0 0 0 0 0 0 0 0 0 0 0 0 0 -0 0 0 0 0 0 0 0 0 0 0 0 0 0 0 0
0 0 0 0 0 0 0 0 0 0 0 0 0 0 0 0 0 0 0 0 0 0 0 0 0 0 0 0 0 0 0 0 0 0 0 0 0 0 0 0 0 0 0
0 0 0 0 0 0 0 0 0 0 0 0 0 0 0 0 0 0 -0 0 0 -0 0 0 0 0 0 0 0 0 0 0 0 0 0 0 0 0 0 0 0 0 0
0 0 0 0 0 0 0 0 0 0 0 0 0 0 0 0 0 -0 -0 -0 -0 0 -0 0 0 0 0 0 0 0 0 0 0 0 0 0 0 0 0 0 0 0 0
0 0 0 0 0 0 0 0 0 0 0 0 0 0 -0 -0 -0 -0 -0 -0 -0 -0 -0 0 0 0 0 0 0 0 0 0 0 0 0 0 0 0 0 0 0 0 0
0 0 0 0 0 0 0 0 0 0 0 0 0 0 -0 -0 -0 -0 -0 -0 -0 -0 -0 0 0 0 0 0 0 0 0 0 0 0 0 0 0 0 0 0 0 0 0
0 0 0 0 0 0 0 0 0 0 0 0 0 0 -0 -0 -0 -0 -0 0 -0 -0 0 0 -0 0 0 0 0 0 0 0 0 0 0 0 0 0 0 0 0 0 0
0 0 0 0 0 0 0 0 0 0 0 0 0 0 -0 0 -0 -0 -0 -0 -0 -0 0 0 0 -0 0 0 0 0 0 0 0 0 0 0 0 0 0 0 0 0 0
Wind_Speed_500mb
18 17 16 13 12 13 14 15 15 14 13 14 20 28 27 24 22 22 24 25 34 39 46 48 42 43 45 44 38 31 40 37 42 40 37 34 29 27 23 20 20 20 15
19 17 15 14 13 14 16 19 22 24 23 22 19 21 28 34 33 34 35 36 39 40 42 41 45 45 48 52 47 38 41 47 45 40 39 37 34 31 26 24 23 21 17
19 18 15 14 17 19 21 23 24 26 26 26 25 23 25 28 36 44 46 46 47 51 49 48 46 54 55 53 53 45 40 51 49 47 43 40 37 33 29 27 23 22 18
18 14 13 13 16 19 23 25 28 31 32 35 37 36 33 31 32 37 43 52 55 55 59 57 52 50 58 57 58 56 47 52 54 50 46 43 44 39 33 30 25 23 18
16 14 13 15 17 21 26 29 33 36 37 38 41 42 43 41 39 38 42 48 54 59 58 56 56 55 65 65 58 62 55 47 54 59 47 48 47 43 39 34 29 25 20
13 13 13 14 17 23 26 27 31 32 37 37 42 47 50 41 36 49 45 53 60 58 64 63 58 57 66 76 71 66 67 52 54 65 53 51 52 48 44 37 33 27 23
13 12 13 14 19 25 26 29 33 35 40 42 51 62 58 26 64 21 49 53 59 67 67 68 66 63 55 71 82 73 71 66 57 64 62 51 54 50 46 41 38 30 26
16 13 13 15 19 25 25 29 32 38 44 41 49 54 41 69 45 78 66 70 61 64 68 62 67 65 62 64 76 81 73 75 64 63 62 50 57 54 50 46 42 34 31
17 15 14 18 24 24 26 29 31 34 44 40 45 44 35 30 87 73 71 75 78 68 68 61 60 64 71 59 72 79 86 78 75 64 63 50 58 56 53 49 45 39 33
17 16 18 24 25 25 26 29 33 36 35 44 50 45 48 54 65 81 88 85 82 76 73 70 68 68 78 54 66 80 80 81 81 71 65 54 58 57 55 51 47 42 34
19 19 24 27 25 25 28 32 33 40 44 46 43 51 59 60 64 59 82 84 85 76 89 87 90 76 70 83 35 75 79 89 81 79 68 63 55 56 56 53 48 42 36
21 23 28 27 26 25 28 31 41 42 43 43 47 52 53 61 67 67 73 79 81 108 96 89 77 64 59 77 70 48 80 92 90 87 74 69 55 59 59 54 50 44 38
23 26 29 27 26 26 31 39 44 48 49 49 53 56 58 62 65 66 72 85 88 101 93 84 83 72 62 71 75 42 73 82 94 91 83 73 58 64 62 58 53 46 39
28 29 29 30 30 31 37 44 51 52 53 54 58 57 61 61 66 67 80 71 96 83 80 83 74 71 73 61 75 65 64 79 85 99 88 76 62 69 64 58 53 51 41
32 32 33 35 33 38 43 49 55 58 56 56 58 62 63 65 68 74 79 81 80 81 83 91 76 80 57 54 79 58 46 86 87 94 90 82 69 73 65 60 58 54 44
33 34 34 35 39 45 51 50 55 58 62 60 60 63 64 67 69 70 83 91 77 83 92 88 86 78 67 55 73 52 44 85 90 95 91 86 76 70 67 63 64 56 45
33 34 36 39 45 48 47 52 61 61 59 60 61 60 65 66 66 76 81 93 82 78 77 89 82 55 56 51 82 50 43 90 89 94 88 90 81 72 71 67 66 56 45
35 36 36 43 44 46 51 58 59 55 60 62 60 57 64 65 72 76 79 83 89 76 83 82 62 59 53 49 63 43 39 80 92 96 86 93 83 77 71 70 66 53 45
35 33 37 39 43 50 57 63 57 59 54 57 57 60 65 68 73 78 74 89 90 87 91 63 58 47 35 39 50 32 25 76 94 97 89 92 86 82 74 69 61 54 45
33 33 34 41 50 57 64 56 55 54 58 57 58 57 62 69 72 74 78 89 88 80 67 50 49 50 32 36 47 39 42 82 91 93 90 93 86 82 74 70 61 54 47
32 34 39 47 56 59 54 53 52 55 56 60 60 61 62 67 67 68 73 80 80 82 53 26 37 41 48 53 58 37 46 80 91 87 97 96 87 82 77 71 63 56 49
34 37 44 53 52 50 48 47 47 53 56 58 63 64 65 67 73 68 75 74 67 66 44 40 50 58 47 46 45 33 40 85 82 86 99 96 95 89 84 77 70 59 51
37 42 51 45 44 51 45 45 46 49 53 56 61 66 64 67 71 83 75 76 71 59 33 30 52 49 31 27 36 45 50 94 68 95 97 96 93 90 85 77 69 60 52
40 47 43 42 46 49 43 48 42 47 61 65 61 58 64 69 74 75 77 77 73 55 34 19 41 47 35 27 34 54 95 89 78 86 90 80 96 92 87 75 69 60 52
43 39 39 42 49 48 43 51 46 59 66 57 54 53 56 70 74 64 71 81 76 45 27 12 50 43 39 37 30 66 93 93 88 90 92 80 85 95 86 78 71 63 53
36 35 40 45 48 50 48 55 59 59 54 55 57 57 62 60 60 57 66 76 75 51 48 23 46 45 34 24 37 67 100 95 90 78 93 88 89 100 72 82 77 70 60
Wind_Direction_500mb
331 337 336 337 340 342 341 341 341 338 324 303 283 279 277 275 270 259 260 260 265 276 278 277 253 253 260 257 253 250 237 228 221 218 217 211 203 215 213 226 213 210 201
320 318 316 323 333 340 345 345 343 340 338 330 318 300 285 274 266 264 260 260 259 265 276 277 255 255 256 251 253 247 239 234 230 228 219 214 207 214 220 221 214 211 201
310 307 314 328 340 344 345 344 343 339 333 328 319 307 298 288 276 267 264 267 267 263 262 265 271 253 254 249 243 249 240 234 235 240 222 218 215 217 219 213 207 205 202
305 309 322 330 335 338 341 343 342 343 341 335 330 325 317 304 295 290 282 268 266 265 266 260 263 257 252 247 240 245 243 232 237 240 229 221 219 218 216 214 204 204 196
307 318 324 331 339 347 347 347 347 346 345 340 338 335 327 320 310 301 294 284 270 265 264 265 259 256 248 250 248 240 246 236 234 238 239 220 225 221 217 211 205 204 200
298 308 315 324 337 346 344 343 342 344 343 343 340 336 335 339 330 321 304 291 287 278 268 262 263 255 255 240 245 242 239 235 230 237 244 227 226 222 217 212 209 205 204
288 295 304 327 339 336 336 339 336 340 346 345 342 338 342 332 336 337 314 300 289 286 279 270 263 262 260 256 240 239 231 232 228 233 237 242 223 222 219 213 211 204 211
278 293 313 325 324 320 327 331 335 334 336 340 340 342 339 329 324 329 323 319 311 296 292 284 271 263 254 254 246 239 233 227 228 227 232 236 222 222 221 212 213 206 214
275 285 297 304 304 307 315 320 325 324 324 328 330 331 334 318 323 322 317 315 317 306 296 299 285 267 253 244 242 240 240 226 225 225 228 226 222 222 218 215 212 210 214
266 269 280 290 296 304 310 312 313 317 319 315 315 317 313 313 313 311 313 311 310 305 301 295 302 287 262 260 221 239 234 231 224 223 227 230 220 220 217 215 212 212 212
257 269 282 294 296 299 303 307 316 312 307 306 310 312 312 310 310 305 301 307 311 304 301 301 301 293 274 259 251 218 238 227 225 224 225 225 222 215 218 213 212 211 210
263 278 290 296 300 302 309 318 315 318 318 313 310 307 305 305 305 305 300 301 302 304 300 299 297 288 277 270 259 220 215 230 224 221 221 222 218 214 217 211 212 210 208
277 284 291 301 298 303 316 318 317 314 312 307 309 306 304 300 299 297 295 299 301 301 297 292 293 290 284 274 258 255 217 217 219 219 218 219 216 213 213 209 209 208 207
282 289 293 303 299 310 311 311 310 309 307 303 303 304 301 297 298 293 293 294 299 292 289 290 294 285 285 273 256 260 214 215 222 216 215 215 207 211 211 207 206 209 205
277 286 294 294 299 306 305 306 307 308 307 303 297 300 299 300 302 297 294 289 290 285 284 292 281 278 281 272 248 260 246 211 214 210 212 210 206 207 208 204 205 209 205
274 284 286 291 297 300 302 302 305 304 303 302 300 300 301 302 302 300 300 296 291 285 275 284 289 284 274 265 236 263 248 212 206 208 207 208 205 207 203 202 206 208 203
279 282 288 293 297 299 303 307 306 305 303 305 303 301 302 304 302 304 303 304 291 288 280 282 282 276 274 263 235 269 240 203 204 204 205 205 203 204 201 201 205 204 198
281 284 290 296 299 305 309 308 309 307 303 304 304 303 305 305 307 307 307 301 300 295 285 274 276 271 260 233 253 263 238 200 207 202 204 203 201 201 202 202 207 198 196
280 287 295 297 306 307 306 307 305 306 305 304 303 305 305 308 308 310 305 306 307 301 295 261 265 259 253 225 257 265 227 206 209 205 203 202 199 200 204 203 201 198 195
282 292 297 304 305 305 305 306 308 307 307 306 306 307 308 308 310 311 308 308 310 304 301 252 251 243 258 236 257 256 238 197 197 197 198 199 198 202 204 203 202 199 196
285 291 297 303 304 304 308 312 311 308 308 309 309 310 311 311 309 304 304 306 310 313 285 264 239 231 237 247 254 230 193 187 190 193 194 195 197 199 203 204 202 200 196
282 288 297 301 303 310 312 309 309 308 309 309 310 311 309 310 312 311 309 310 311 309 316 281 235 221 238 241 244 225 185 171 167 194 190 189 197 196 200 202 200 198 196
281 292 298 302 310 314 310 312 310 309 306 304 304 304 309 312 312 320 320 328 329 329 303 291 237 227 231 256 227 246 203 176 175 176 186 182 192 196 198 200 199 198 198
282 294 299 310 312 313 312 315 313 307 304 307 309 308 305 311 316 319 320 323 328 329 290 264 238 221 239 234 234 202 180 176 179 179 189 173 192 195 196 199 199 199 199
288 296 304 309 313 314 315 316 314 311 313 317 318 316 315 315 315 318 320 326 326 321 319 264 210 207 231 225 236 169 172 175 173 175 185 174 179 191 193 198 200 202 201
292 302 303 309 312 312 316 318 315 311 310 315 314 314 312 316 318 322 323 322 323 322 320 318 205 218 218 208 194 177 183 182 174 171 183 185 183 186 186 197 199 200 200
Wind_Speed_850mb
18 17 16 13 12 13 14 15 15 14 13 14 20 28 27 24 22 22 24 25 34 39 46 48 42 43 45 44 38 31 40 37 42 40 37 34 29 27 23 20 20 20 15
19 17 15 14 13 14 16 19 22 24 23 22 19 21 28 34 33 34 35 36 39 40 42 41 45 45 48 52 47 38 41 47 45 40 39 37 34 31 26 24 23 21 17
19 18 15 14 17 19 21 23 24 26 26 26 25 23 25 28 36 44 46 46 47 51 49 48 46 54 55 53 53 45 40 51 49 47 43 40 37 33 29 27 23 22 18
18 14 13 13 16 19 23 25 28 31 32 35 37 36 33 31 32 37 43 52 55 55 59 57 52 50 58 57 58 56 47 52 54 50 46 43 44 39 33 30 25 23 18
16 14 13 15 17 21 26 29 33 36 37 38 41 42 43 41 39 38 42 48 54 59 58 56 56 55 65 65 58 62 55 47 54 59 47 48 47 43 39 34 29 25 20
13 13 13 14 17 23 26 27 31 32 37 37 42 47 50 41 36 49 45 53 60 58 64 63 58 57 66 76 71 66 67 52 54 65 53 51 52 48 44 37 33 27 23
13 12 13 14 19 25 26 29 33 35 40 42 51 62 58 26 64 21 49 53 59 67 67 68 66 63 55 71 82 73 71 66 57 64 62 51 54 50 46 41 38 30 26
16 13 13 15 19 25 25 29 32 38 44 41 49 54 41 69 45 78 66 70 61 64 68 62 67 65 62 64 76 81 73 75 64 63 62 50 57 54 50 46 42 34 31
17 15 14 18 24 24 26 29 31 34 44 40 45 44 35 30 87 73 71 75 78 68 68 61 60 64 71 59 72 79 86 78 75 64 63 50 58 56 53 49 45 39 33
17 16 18 24 25 25 26 29 33 36 35 44 50 45 48 54 65 81 88 85 82 76 73 70 68 68 78 54 66 80 80 81 81 71 65 54 58 57 55 51 47 42 34
19 19 24 27 25 25 28 32 33 40 44 46 43 51 59 60 64 59 82 84 85 76 89 87 90 76 70 83 35 75 79 89 81 79 68 63 55 56 56 53 48 42 36
21 23 28 27 26 25 28 31 41 42 43 43 47 52 53 61 67 67 73 79 81 108 96 89 77 64 59 77 70 48 80 92 90 87 74 69 55 59 59 54 50 44 38
23 26 29 27 26 26 31 39 44 48 49 49 53 56 58 62 65 66 72 85 88 101 93 84 83 72 62 71 75 42 73 82 94 91 83 73 58 64 62 58 53 46 39
28 29 29 30 30 31 37 44 51 52 53 54 58 57 61 61 66 67 80 71 96 83 80 83 74 71 73 61 75 65 64 79 85 99 88 76 62 69 64 58 53 51 41
32 32 33 35 33 38 43 49 55 58 56 56 58 62 63 65 68 74 79 81 80 81 83 91 76 80 57 54 79 58 46 86 87 94 90 82 69 73 65 60 58 54 44
33 34 34 35 39 45 51 50 55 58 62 60 60 63 64 67 69 70 83 91 77 83 92 88 86 78 67 55 73 52 44 85 90 95 91 86 76 70 67 63 64 56 45
33 34 36 39 45 48 47 52 61 61 59 60 61 60 65 66 66 76 81 93 82 78 77 89 82 55 56 51 82 50 43 90 89 94 88 90 81 72 71 67 66 56 45
35 36 36 43 44 46 51 58 59 55 60 62 60 57 64 65 72 76 79 83 89 76 83 82 62 59 53 49 63 43 39 80 92 96 86 93 83 77 71 70 66 53 45
35 33 37 39 43 50 57 63 57 59 54 57 57 60 65 68 73 78 74 89 90 87 91 63 58 47 35 39 50 32 25 76 94 97 89 92 86 82 74 69 61 54 45
33 33 34 41 50 57 64 56 55 54 58 57 58 57 62 69 72 74 78 89 88 80 67 50 49 50 32 36 47 39 42 82 91 93 90 93 86 82 74 70 61 54 47
32 34 39 47 56 59 54 53 52 55 56 60 60 61 62 67 67 68 73 80 80 82 53 26 37 41 48 53 58 37 46 80 91 87 97 96 87 82 77 71 63 56 49
34 37 44 53 52 50 48 47 47 53 56 58 63 64 65 67 73 68 75 74 67 66 44 40 50 58 47 46 45 33 40 85 82 86 99 96 95 89 84 77 70 59 51
37 42 51 45 44 51 45 45 46 49 53 56 61 66 64 67 71 83 75 76 71 59 33 30 52 49 31 27 36 45 50 94 68 95 97 96 93 90 85 77 69 60 52
40 47 43 42 46 49 43 48 42 47 61 65 61 58 64 69 74 75 77 77 73 55 34 19 41 47 35 27 34 54 95 89 78 86 90 80 96 92 87 75 69 60 52
43 39 39 42 49 48 43 51 46 59 66 57 54 53 56 70 74 64 71 81 76 45 27 12 50 43 39 37 30 66 93 93 88 90 92 80 85 95 86 78 71 63 53
36 35 40 45 48 50 48 55 59 59 54 55 57 57 62 60 60 57 66 76 75 51 48 23 46 45 34 24 37 67 100 95 90 78 93 88 89 100 72 82 77 70 60
Wind_Direction_850mb
331 337 336 337 340 342 341 341 341 338 324 303 283 279 277 275 270 259 260 260 265 276 278 277 253 253 260 257 253 250 237 228 221 218 217 211 203 215 213 226 213 210 201
320 318 316 323 333 340 345 345 343 340 338 330 318 300 285 274 266 264 260 260 259 265 276 277 255 255 256 251 253 247 239 234 230 228 219 214 207 214 220 221 214 211 201
310 307 314 328 340 344 345 344 343 339 333 328 319 307 298 288 276 267 264 267 267 263 262 265 271 253 254 249 243 249 240 234 235 240 222 218 215 217 219 213 207 205 202
305 309 322 330 335 338 341 343 342 343 341 335 330 325 317 304 295 290 282 268 266 265 266 260 263 257 252 247 240 245 243 232 237 240 229 221 219 218 216 214 204 204 196
307 318 324 331 339 347 347 347 347 346 345 340 338 335 327 320 310 301 294 284 270 265 264 265 259 256 248 250 248 240 246 236 234 238 239 220 225 221 217 211 205 204 200
298 308 315 324 337 346 344 343 342 344 343 343 340 336 335 339 330 321 304 291 287 278 268 262 263 255 255 240 245 242 239 235 230 237 244 227 226 222 217 212 209 205 204
288 295 304 327 339 336 336 339 336 340 346 345 342 338 342 332 336 337 314 300 289 286 279 270 263 262 260 256 240 239 231 232 228 233 237 242 223 222 219 213 211 204 211
278 293 313 325 324 320 327 331 335 334 336 340 340 342 339 329 324 329 323 319 311 296 292 284 271 263 254 254 246 239 233 227 228 227 232 236 222 222 221 212 213 206 214
275 285 297 304 304 307 315 320 325 324 324 328 330 331 334 318 323 322 317 315 317 306 296 299 285 267 253 244 242 240 240 226 225 225 228 226 222 222 218 215 212 210 214
266 269 280 290 296 304 310 312 313 317 319 315 315 317 313 313 313 311 313 311 310 305 301 295 302 287 262 260 221 239 234 231 224 223 227 230 220 220 217 215 212 212 212
257 269 282 294 296 299 303 307 316 312 307 306 310 312 312 310 310 305 301 307 311 304 301 301 301 293 274 259 251 218 238 227 225 224 225 225 222 215 218 213 212 211 210
263 278 290 296 300 302 309 318 315 318 318 313 310 307 305 305 305 305 300 301 302 304 300 299 297 288 277 270 259 220 215 230 224 221 221 222 218 214 217 211 212 210 208
277 284 291 301 298 303 316 318 317 314 312 307 309 306 304 300 299 297 295 299 301 301 297 292 293 290 284 274 258 255 217 217 219 219 218 219 216 213 213 209 209 208 207
282 289 293 303 299 310 311 311 310 309 307 303 303 304 301 297 298 293 293 294 299 292 289 290 294 285 285 273 256 260 214 215 222 216 215 215 207 211 211 207 206 209 205
277 286 294 294 299 306 305 306 307 308 307 303 297 300 299 300 302 297 294 289 290 285 284 292 281 278 281 272 248 260 246 211 214 210 212 210 206 207 208 204 205 209 205
274 284 286 291 297 300 302 302 305 304 303 302 300 300 301 302 302 300 300 296 291 285 275 284 289 284 274 265 236 263 248 212 206 208 207 208 205 207 203 202 206 208 203
279 282 288 293 297 299 303 307 306 305 303 305 303 301 302 304 302 304 303 304 291 288 280 282 282 276 274 263 235 269 240 203 204 204 205 205 203 204 201 201 205 204 198
281 284 290 296 299 305 309 308 309 307 303 304 304 303 305 305 307 307 307 301 300 295 285 274 276 271 260 233 253 263 238 200 207 202 204 203 201 201 202 202 207 198 196
280 287 295 297 306 307 306 307 305 306 305 304 303 305 305 308 308 310 305 306 307 301 295 261 265 259 253 225 257 265 227 206 209 205 203 202 199 200 204 203 201 198 195
282 292 297 304 305 305 305 306 308 307 307 306 306 307 308 308 310 311 308 308 310 304 301 252 251 243 258 236 257 256 238 197 197 197 198 199 198 202 204 203 202 199 196
285 291 297 303 304 304 308 312 311 308 308 309 309 310 311 311 309 304 304 306 310 313 285 264 239 231 237 247 254 230 193 187 190 193 194 195 197 199 203 204 202 200 196
282 288 297 301 303 310 312 309 309 308 309 309 310 311 309 310 312 311 309 310 311 309 316 281 235 221 238 241 244 225 185 171 167 194 190 189 197 196 200 202 200 198 196
281 292 298 302 310 314 310 312 310 309 306 304 304 304 309 312 312 320 320 328 329 329 303 291 237 227 231 256 227 246 203 176 175 176 186 182 192 196 198 200 199 198 198
282 294 299 310 312 313 312 315 313 307 304 307 309 308 305 311 316 319 320 323 328 329 290 264 238 221 239 234 234 202 180 176 179 179 189 173 192 195 196 199 199 199 199
288 296 304 309 313 314 315 316 314 311 313 317 318 316 315 315 315 318 320 326 326 321 319 264 210 207 231 225 236 169 172 175 173 175 185 174 179 191 193 198 200 202 201
292 302 303 309 312 312 316 318 315 311 310 315 314 314 312 316 318 322 323 322 323 322 320 318 205 218 218 208 194 177 183 182 174 171 183 185 183 186 186 197 199 200 200